{"data":{"norad_id":40664,"epoch":"2026-05-24T20:31:25.631328Z","epoch_age_seconds":91487,"freshness":"FRESH","line1":"1 40664U 15026B   26144.85515777 -.00000237  00000+0  00000+0 0  9997","line2":"2 40664   0.0393 113.1161 0002053 322.6663  35.7225  1.00270108 40220","mean_motion":1.00270108,"eccentricity":0.0002053,"inclination_deg":0.0393,"raan_deg":113.1161,"arg_perigee_deg":322.6663,"mean_anomaly_deg":35.7225,"bstar":0,"rev_number":4022,"period_min":1436.1209224987,"perigee_km":35778.40857573,"apogee_km":35795.721607709,"semimajor_km":42165.20209172,"source":"CELESTRAK","updated_at":"2026-05-25T13:38:14.334071Z"}}